Weather in Khailino

Russia / Kamchatka Krai     60°57′30″N   166°50′55″E
temp.,
°C
wind,
m/s
gust,
m/s
humid.,
%
clouds,
%
prec.,
mm/h
press.,
hPa
HPBL,
m
28 february, sun
sun2800:00−34nne11886 0.0 102620
03:00−33ne12890 0.0 102620
06:00−31ne228820 0.0 102629
09:00−28nne238784 0.0 102652
12:00−22ne459190 0.1 1025225
15:00−19ne458985 0.0 1023231
18:00−21nne478889 0.0 1020114
21:00−22nne4688100 0.0 1019115
1 march, mon
mon100:00−24nne4689100 0.0 1013128
03:00−25n4687100 0.0 1007191
06:00−27n4885100 0.0 1003262
09:00−29n4791100 0.4 1000276
12:00−25n3693100 1.5 998353
15:00−22nnw5884100 0.2 996423
18:00−24nw4784100 0.3 997374
21:00−25nw3487100 0.0 999102
2 march, tue
tue200:00−27nw2387100 0.0 100137
03:00−25nw228799 0.0 100357
06:00−26nnw128799 0.0 100536
09:00−25wnw1187100 0.0 100934
12:00−22w1182100 0.0 1011228
15:00−21n1280100 0.0 1013305
18:00−25nnw128697 0.0 101621
21:00−28n118575 0.0 102019
3 march, wed
wed300:00−29ne118586 0.0 102219
03:00−29ne118695 0.0 102419
06:00−28ese008598 0.0 102619
09:00−28ene118450 0.0 102819
12:00−24sse118261 0.0 102895
15:00−22ne228593 0.0 1027151
18:00−21ne238596 0.0 102469
21:00−18ne5883100 0.0 1019308
4 march, thu
thu400:00−12e122082100 0.0 1010761
03:00−9ese182983100 0.8 10001115
06:00−4ese182695100 8.1 990966
09:000se132497100 13.4 9811279
12:000se112199100 25.4 9751223
15:00−1s5894100 6.5 974836
18:00−13wsw81388100 8.1 979930
21:00−18sw61485100 0.1 987660